TimeEST,TemperatureF,Dew PointF,Humidity,Sea Level PressureIn,VisibilityMPH,Wind Direction,Wind SpeedMPH,Gust SpeedMPH,PrecipitationIn,Events,Conditions,WindDirDegrees,DateUTC
12:51 AM,48.9,46.9,93,29.95,10.0,SSE,5.8,-,N/A,,Mostly Cloudy,160,2013-01-12 05:51:00
1:51 AM,50.0,48.0,93,29.96,10.0,South,6.9,-,N/A,,Mostly Cloudy,170,2013-01-12 06:51:00
2:51 AM,52.0,50.0,93,29.97,10.0,South,6.9,-,N/A,,Overcast,170,2013-01-12 07:51:00
3:51 AM,51.8,50.0,94,29.98,8.0,South,4.6,-,N/A,,Overcast,180,2013-01-12 08:51:00
4:12 AM,51.8,51.8,100,29.98,9.0,South,9.2,-,N/A,,Overcast,190,2013-01-12 09:12:00
4:30 AM,55.4,53.6,94,29.98,5.0,SW,13.8,-,N/A,,Overcast,220,2013-01-12 09:30:00
4:51 AM,55.0,54.0,96,29.98,6.0,SSW,8.1,-,N/A,,Overcast,200,2013-01-12 09:51:00
5:02 AM,55.4,53.6,94,29.98,9.0,South,5.8,-,N/A,,Overcast,190,2013-01-12 10:02:00
5:19 AM,53.6,53.6,100,29.98,8.0,South,4.6,-,N/A,,Overcast,170,2013-01-12 10:19:00
5:51 AM,53.1,52.0,96,29.98,8.0,SSE,6.9,-,N/A,,Mostly Cloudy,160,2013-01-12 10:51:00
6:51 AM,52.0,52.0,100,30.00,5.0,SSE,6.9,-,N/A,,Overcast,160,2013-01-12 11:51:00
7:34 AM,53.6,51.8,94,30.01,6.0,South,6.9,-,N/A,,Overcast,170,2013-01-12 12:34:00
7:51 AM,53.1,52.0,96,30.02,6.0,South,9.2,-,N/A,,Overcast,170,2013-01-12 12:51:00
8:51 AM,54.0,53.1,97,30.04,8.0,South,6.9,-,N/A,,Mostly Cloudy,180,2013-01-12 13:51:00
9:51 AM,57.0,55.0,93,30.05,10.0,South,6.9,-,N/A,,Overcast,170,2013-01-12 14:51:00
9:59 AM,57.2,55.4,94,30.05,10.0,South,6.9,-,N/A,,Overcast,180,2013-01-12 14:59:00
10:51 AM,60.1,55.9,86,30.04,10.0,SSW,8.1,-,N/A,,Overcast,210,2013-01-12 15:51:00
11:51 AM,62.1,55.9,80,30.02,10.0,SW,8.1,-,N/A,,Mostly Cloudy,220,2013-01-12 16:51:00
12:51 PM,63.0,55.9,78,30.00,10.0,WSW,11.5,17.3,N/A,,Mostly Cloudy,240,2013-01-12 17:51:00
1:51 PM,63.0,55.9,78,30.01,10.0,SW,11.5,-,N/A,,Overcast,220,2013-01-12 18:51:00
2:51 PM,64.0,55.9,75,30.00,10.0,SSW,9.2,-,N/A,,Overcast,210,2013-01-12 19:51:00
2:58 PM,64.4,57.2,77,30.01,10.0,SSW,8.1,-,N/A,,Mostly Cloudy,210,2013-01-12 19:58:00
3:51 PM,64.0,57.0,78,30.00,10.0,SSW,6.9,-,N/A,,Overcast,200,2013-01-12 20:51:00
4:51 PM,63.0,57.0,81,29.99,10.0,South,4.6,-,N/A,,Overcast,170,2013-01-12 21:51:00
5:06 PM,62.6,57.2,82,29.98,10.0,SSE,8.1,-,N/A,,Overcast,160,2013-01-12 22:06:00
5:25 PM,62.6,57.2,82,29.98,10.0,SSE,5.8,-,N/A,,Overcast,160,2013-01-12 22:25:00
5:51 PM,62.1,57.0,84,29.96,10.0,SE,9.2,-,N/A,,Overcast,140,2013-01-12 22:51:00
6:51 PM,63.0,60.1,90,29.95,10.0,South,8.1,-,N/A,,Overcast,170,2013-01-12 23:51:00
7:10 PM,62.6,60.8,94,29.95,10.0,SSE,12.7,-,N/A,,Overcast,150,2013-01-13 00:10:00
7:40 PM,62.6,60.8,94,29.94,10.0,SE,9.2,-,N/A,,Overcast,140,2013-01-13 00:40:00
7:51 PM,62.1,60.1,93,29.93,10.0,SSE,10.4,-,N/A,,Overcast,160,2013-01-13 00:51:00
8:06 PM,62.6,60.8,94,29.93,6.0,SSE,11.5,-,N/A,,Overcast,150,2013-01-13 01:06:00
8:27 PM,62.6,60.8,94,29.91,5.0,SE,11.5,-,0.00,,Overcast,140,2013-01-13 01:27:00
8:51 PM,62.1,60.1,93,29.91,8.0,SE,10.4,-,0.00,,Overcast,140,2013-01-13 01:51:00
9:40 PM,62.6,60.8,94,29.88,10.0,SE,13.8,-,0.00,Rain,Light Rain,140,2013-01-13 02:40:00
9:51 PM,62.1,61.0,96,29.88,10.0,SSE,12.7,-,0.00,,Overcast,150,2013-01-13 02:51:00
10:51 PM,62.1,61.0,96,29.87,10.0,SSE,9.2,-,N/A,,Overcast,160,2013-01-13 03:51:00
11:51 PM,63.0,61.0,93,29.85,10.0,SSE,11.5,-,N/A,,Overcast,160,2013-01-13 04:51:00